sat.trackr.live / text

‹ back to catalog

STARLINK-30358

NORAD 57879 · 2023-144R

PAYLOAD ACTIVE UNKNOWN

§ Identity

Operator
Country
US
Launch date
2023-09-16
Launch site
AFETR
Launch vehicle
Mass (kg)
RCS (m²)

Purposes: comms

External: N2YO · Heavens-Above · Gunter

§ Orbital elements

Epoch: 2026-05-25T05:01:36.143040Z

Period
94.27 min
Inclination
43.0015°
Eccentricity
0.0001859
Mean motion
15.27565399 rev/d
Perigee alt
481.8 km
Apogee alt
484.4 km
Semi-major
6,861.2 km
B*
-6.0597e-5
RAAN
212.7566°
Arg perigee
270.6223°
Mean anomaly
89.4415°
Rev number
14,934

§ Raw data

STARLINK-303581 57879U 23144R   26145.20944610 -.00001929  00000+0 -60597-4 0  99972 57879  43.0015 212.7566 0001859 270.6223  89.4415 15.27565399149349

JSON: /api/v1/satellites/57879 · /tle

For live sub-satellite position, see the globe view (requires WebGL).

§ Visibility from observer

Set your observer location to see the next 7 days of passes ≥ 10°. The values pass through the URL so the page stays shareable.

No JS? Fill the form by hand. The geolocation button needs JavaScript.